Flag Weather past 2 weeks in Sendai, Japan

Now
57 °F

Light rain. Fog.


Feels Like: 57 °F
Forecast: 56 / 67 °F
Wind: 3 mph from North

Location: Sendai Airport

Current Time: Nov 1, 2014 at 8:37:49 AM

Latest Report: Nov 1, 2014 at 8:00 AM


Visibility: 2 mi

Pressure: 30.12 "Hg

Humidity: 94%

Dew point: 55 °F

Location of SendaiLocation

Historic Weather in Sendai — Graph

°F

Sendai temperature yesterday

Maximum temperature yesterday: 64 °F (at 1:00 PM)
Minimum temperature yesterday: 43 °F (at 6:00 AM)
Average temperature yesterday: 58 °F

Past Weeks' High & Low Weather Summary

 TemperatureHumidityPressure
High72 °F (Oct 27, 10:00 AM)100% (Oct 21, 6:00 PM)30.36 "Hg (Oct 21, 6:00 PM)
Low41 °F (Oct 30, 6:00 AM)30% (Oct 29, 1:00 PM)29.74 "Hg (Oct 27, 1:00 PM)
Average58 °F72%30.11 "Hg
* Reported Oct 17 7:00 AM — Nov 1 7:00 AM, Sendai, Weather by CustomWeather, © 2014

Note: Actual official high and low records may vary slightly from our data, if they occured in-between our weather recording intervals... More about our weather records

Advertising

Sendai weather history for previous 24 hours

 ConditionsComfort  
Time TempWeatherWind HumidityBarometerVisibility
7:00 AM
Nov 1
55 °FLight rain. Fog.8 mph100%30.12 "Hg2 mi
6:00 AM55 °FLight rain. Fog.2 mph94%30.12 "Hg2 mi
9:00 PM
Oct 31
55 °FPartly cloudy.2 mph94%30.18 "HgN/A
8:00 PM55 °FPassing clouds.3 mph94%30.18 "HgN/A
7:00 PM57 °FPassing clouds.2 mph88%30.18 "HgN/A
6:00 PM57 °FPassing clouds.2 mph88%30.18 "HgN/A
5:00 PM61 °FPassing clouds.3 mph83%30.18 "HgN/A
4:00 PM61 °FPartly sunny.5 mph83%30.18 "HgN/A
3:00 PM63 °FPartly sunny.5 mph77%30.15 "HgN/A
2:00 PM63 °FPartly sunny.7 mph77%30.15 "HgN/A
1:00 PM64 °FPartly sunny.8 mph68%30.18 "HgN/A
12:00 PM63 °FPartly sunny.7 mph73%30.18 "HgN/A
11:00 AM63 °FPartly sunny.5 mph68%30.21 "HgN/A
10:00 AM63 °FScattered clouds.3 mph64%30.24 "HgN/A
9:00 AM59 °FPassing clouds.2 mph68%30.24 "HgN/A
8:00 AM52 °FPassing clouds.5 mph82%30.27 "HgN/A
Weather by CustomWeather, © 2014

See weather overviewHow to use our weather pages